Location: Warszawa
(52.2500°N, 21.0000°E)
Time: 14:31:31
(UTC+02:00)

Transit 2A Rocket - Visible Passes

Search period start: 24 July 2024 00:00
Search period end: 03 August 2024 00:00
Orbit: 582 x 911 km, 66.7° (Epoch: 24 July)

Date Brightness Start Highest point End Pass type
(mag) Time Alt. Az. Time Alt. Az. Time Alt. Az.
24 Jul 6.0 21:53:57 10° NW 21:59:47 49° WSW 22:05:26 10° S visible
25 Jul 7.4 22:53:38 10° WNW 22:57:19 17° WSW 23:00:54 10° SW visible
26 Jul 6.9 22:08:39 10° NW 22:13:35 26° WSW 22:18:22 10° SSW visible
27 Jul 6.4 21:24:06 10° NW 21:29:44 40° WSW 21:35:10 10° S visible
28 Jul 7.6 22:24:25 10° WNW 22:27:06 13° W 22:29:44 10° SW visible
29 Jul 7.3 21:39:00 10° WNW 21:43:26 21° WSW 21:47:44 10° SSW visible
31 Jul 8.1 21:56:24 10° W 21:56:50 10° W 21:57:16 10° WSW visible
01 Aug 7.6 21:09:27 10° WNW 21:13:13 17° WSW 21:16:54 10° SW visible
